カタログに戻る

STARLINK-31663

運用中通信VLEO
NORAD 59576·PAYLOAD·🇺🇸 United States

打ち上げ Apr 23, 2024 から Cape Canaveral Space Force Station

Loading…

次のパス (今後24時間)

TLE

最新Source: CelesTrak SupGP

元期: Sep 14, 2026, 20:43 UTC

1 59576C 24076N   26257.86368056  .00046366  00000+0  16793-2 0  2574
2 59576  43.0042  20.9098 0001767 273.8066   0.7424 15.27556278    14

AllMySatでSTARLINK-31663をリアルタイム追跡

Download on the App Store